Location: ??????
(38.1303°N, 24.0039°E)
Time: 08:20:17
(UTC+00:00)

Cosmos 841 Rocket - Pass Details

Date: 20 June 2021
Orbit: 747 x 772 km, 74.0° (Epoch: 30 July)

Event Time Altitude Azimuth Distance (km) Brightness Sun altitude
Exits shadow 00:22:56 33° 271° (W) 1,242 4.3 -22.6°
Maximum altitude 00:23:52 36° 294° (WNW) 1,180 4.4 -22.5°
Drops below altitude 10° 00:28:35 10° 1° (N) 2,271 6.8 -22.0°
Sets 00:31:08 0° 10° (N) 3,198 7.9 -21.7°
